Regional Weather Roundup
Issued by NWS

Home | Current Version | Previous Version | Graphics & Text | Print | Product List | Glossary On
Versions: 1 2 3 4 5 6 7 8 9 10 11 12 13 14 15 16 17 18 19 20 21 22 23 24 25 26 27 28 29 30 31 32 33 34 35 36 37 38 39 40 41 42 43 44 45 46 47 48 49 50
000
ASUS43 KOAX 231602
RWRNE

WEATHER ROUNDUP FOR NEBRASKA
NATIONAL WEATHER SERVICE OMAHA NE
1000 AM CST FRI FEB 23 2018

NOTES: SATELLITE DATA IS BEING USED TO AUGMENT CLOUD COVER ABOVE
       12000 FEET.
       "FAIR" INDICATES FEW OR NO CLOUDS BELOW 12,000 FEET WITH NO
       SIGNIFICANT WEATHER AND/OR OBSTRUCTIONS TO VISIBILITY.


NEZ001>004-019>022-054>056-231700-
NEBRASKA PANHANDLE

CITY           SKY/WX    TMP DP  RH WIND       PRES   REMARKS
SCOTTSBLUFF    PTSUNNY   13   8  81 NW6       30.15R WCI   4
ALLIANCE       SUNNY      4   4 100 CALM      30.14R
CHADRON        SUNNY      1  -4  79 S3        30.21S
GORDON         FAIR       4   0  83 CALM      30.17R
KIMBALL        SUNNY     12   7  78 NW5       30.08S WCI   5
SIDNEY         SUNNY     22  12  65 VRB6      30.12R WCI  14
$$

NEZ057>060-069>072-079>082-231700-
SOUTHWEST NEBRASKA

CITY           SKY/WX    TMP DP  RH WIND       PRES   REMARKS
NORTH PLATTE   SUNNY     17  10  74 NW6       30.21S WCI   9
IMPERIAL       SUNNY     24  16  71 N8        30.18R WCI  15
LEXINGTON      SUNNY     18  15  87 N7        30.23R WCI   9
MCCOOK         SUNNY     21  20  96 CALM      30.23R
OGALLALA       SUNNY     19  16  86 N5        30.18F WCI  12
$$

NEZ005>010-023>029-035>040-094-231700-
NORTH CENTRAL NEBRASKA

CITY           SKY/WX    TMP DP  RH WIND       PRES   REMARKS
VALENTINE      SUNNY      9   2  73 W7        30.24R WCI  -2
AINSWORTH      SUNNY     11   9  92 NW9       30.22R WCI  -1
BROKEN BOW     CLOUDY    18  15  88 N15       30.21S WCI   4
O`NEILL        CLOUDY    17  16  93 NW9       30.25R WCI   6
ORD            CLOUDY    20  17  88 NW10      30.24R WCI   9
THEDFORD       MOSUNNY   13   8  80 NW6       30.22R WCI   4
$$

NEZ041-046>049-061>064-073>077-083>087-231700-
SOUTH CENTRAL NEBRASKA

CITY           SKY/WX    TMP DP  RH WIND       PRES   REMARKS
GRAND ISLAND   CLOUDY    17  15  92 CALM      30.28R FOG
AURORA         MOSUNNY   19  15  86 N5        30.28R WCI  12
HASTINGS       SUNNY     23  18  81 N6        30.26R WCI  16
HEBRON         SUNNY     27  22  83 N6        30.30R WCI  20
HOLDREGE       SUNNY     22  22  99 N6        30.24R WCI  15
KEARNEY        SUNNY     23  17  78 N8        30.27R WCI  14
YORK           SUNNY     19  19 100 N5        30.29R FOG     WCI  13
$$

NEZ011>018-030>034-042>045-231700-
NORTHEAST NEBRASKA

CITY           SKY/WX    TMP DP  RH WIND       PRES   REMARKS
NORFOLK        CLOUDY    20  17  88 NW14      30.25R WCI   7
ALBION         CLOUDY    22  20  92 N10G16    30.25R WCI  11
BLAIR          SUNNY     24  23  94 NW6       30.26R WCI  17
COLUMBUS       MOSUNNY   24  20  84 N10       30.28R WCI  14
FREMONT        MOSUNNY   22  21  96 NW7       30.28R WCI  14
TEKAMAH        SUNNY     20  17  88 NW13      30.28R WCI   7
WAYNE          CLOUDY    20  19  96 NW10      30.27S WCI   9
$$

NEZ050>053-065>068-078-088>093-231700-
SOUTHEAST NEBRASKA

CITY           SKY/WX    TMP DP  RH WIND       PRES   REMARKS
LINCOLN        SUNNY     26  21  81 N7        30.31R WCI  18
OMAHA EPPLEY   MOSUNNY   26  21  81 N9        30.29R WCI  17
BEATRICE       SUNNY     28  23  82 CALM      30.30R
FALLS CITY     SUNNY     31  27  85 W7        30.31R WCI  24
NEBRASKA CITY  SUNNY     28  27  94 W5        30.30R WCI  23
PLATTSMOUTH    SUNNY     26  23  89 W3        30.29R
$$

NEZ044-045-051>053-067-231700-
OMAHA AREA

CITY           SKY/WX    TMP DP  RH WIND       PRES   REMARKS
OMAHA EPPLEY   MOSUNNY   26  21  81 N9        30.29R WCI  17
BLAIR          SUNNY     24  23  94 NW6       30.26R WCI  17
FREMONT        MOSUNNY   22  21  96 NW7       30.28R WCI  14
MILLARD        MOSUNNY   28  22  80 N3        30.30R
OFFUTT AFB     SUNNY     28  22  79 CALM      30.29R
PLATTSMOUTH    SUNNY     26  23  89 W3        30.29R
WAHOO          FAIR      22  18  83 NW9       30.29R WCI  12
$$



USA.gov is the U.S. government's official web portal to all federal, state and local government web resources and services.